1547773200.59,7816,0.0,0.0,-8.39,-9.23,-9.23,0,*6A
1547773201.8,7817,0.0,0.0,-8.39,-9.23,-9.23,0,*6B
1547773203.02,7818,0.0,0.0,-8.39,-9.23,-9.23,0,*64
1547773204.21,7819,0.0,0.0,-8.37,-9.19,-9.19,0,*6B
1547773205.43,7820,0.0,0.0,-8.37,-9.15,-9.19,0,*6D
1547773206.63,7821,0.0,0.0,-8.37,-9.19,-9.19,0,*60
1547773207.88,7822,0.0,0.0,-8.35,-9.15,-9.19,0,*6D
1547773209.09,7823,0.0,0.0,-8.37,-9.19,-9.15,0,*6E
1547773210.31,7824,0.0,0.0,-8.35,-9.23,-9.23,0,*67
1547773211.5,7825,0.0,0.0,-8.37,-9.23,-9.23,0,*64
1547773212.69,7826,0.0,0.0,-8.37,-9.31,-9.23,0,*64
1547773213.91,7827,0.0,0.0,-8.35,-9.23,-9.23,0,*64
1547773215.1,7828,0.0,0.0,-8.37,-9.23,-9.23,0,*69
1547773216.29,7829,0.0,0.0,-8.37,-9.31,-9.23,0,*6B
1547773217.48,7830,0.0,0.0,-8.37,-9.31,-9.31,0,*60
1547773218.67,7831,0.0,0.0,-8.37,-9.23,-9.31,0,*62
1547773219.86,7832,0.0,0.0,-8.37,-9.31,-9.31,0,*62
1547773221.04,7833,0.0,0.0,-8.37,-9.31,-9.31,0,*63
1547773222.23,7834,0.0,0.0,-8.37,-9.31,-9.23,0,*67
1547773223.43,7835,0.0,0.0,-8.37,-9.23,-9.23,0,*65
1547773224.62,7836,0.0,0.0,-8.37,-9.23,-9.23,0,*66
1547773225.8,7837,0.0,0.0,-8.37,-9.23,-9.31,0,*64
1547773226.99,7838,0.0,0.0,-8.37,-9.23,-9.31,0,*6B
1547773228.18,7839,0.0,0.0,-8.37,-9.31,-9.31,0,*69
1547773229.37,7840,0.0,0.0,-8.37,-9.31,-9.23,0,*64
1547773230.64,7841,0.0,0.0,-8.39,-9.37,-9.37,0,*68
1547773231.86,7842,0.0,0.0,-8.41,-9.37,-9.27,0,*65
1547773233.09,7843,0.0,0.0,-8.37,-9.31,-9.37,0,*62
1547773234.36,7844,0.0,0.0,-8.39,-9.41,-9.37,0,*6C
1547773235.63,7845,0.0,0.0,-8.39,-9.41,-9.37,0,*6D
1547773236.9,7846,0.0,0.0,-8.39,-9.37,-9.41,0,*6E
1547773238.14,7847,0.0,0.0,-8.39,-9.27,-9.37,0,*6F
1547773239.42,7848,0.0,0.0,-8.39,-9.37,-9.37,0,*61
1547773240.63,7849,0.0,0.0,-8.39,-9.27,-9.27,0,*60
1547773241.85,7850,0.0,0.0,-8.39,-9.27,-9.27,0,*68
1547773243.1,7851,0.0,0.0,-8.41,-9.37,-9.41,0,*67
1547773244.37,7852,0.0,0.0,-8.39,-9.41,-9.37,0,*6B
1547773245.64,7853,0.0,0.0,-8.39,-9.41,-9.37,0,*6A
1547773246.86,7854,0.0,0.0,-8.41,-9.41,-9.27,0,*63
1547773248.13,7855,0.0,0.0,-8.39,-9.37,-9.41,0,*6C
1547773249.4,7856,0.0,0.0,-8.39,-9.37,-9.37,0,*6E
1547773250.67,7857,0.0,0.0,-8.39,-9.41,-9.37,0,*6E
1547773251.92,7858,0.0,0.0,-8.41,-9.41,-9.41,0,*6F
1547773253.17,7859,0.0,0.0,-8.41,-9.41,-9.37,0,*6F
1547773254.44,7860,0.0,0.0,-8.39,-9.41,-9.37,0,*6A
1547773255.71,7861,0.0,0.0,-8.39,-9.37,-9.37,0,*6A
1547773256.96,7862,0.0,0.0,-8.41,-9.37,-9.37,0,*66
1547773258.23,7863,0.0,0.0,-8.39,-9.37,-9.37,0,*68
1547773259.45,7864,0.0,0.0,-8.41,-9.27,-9.37,0,*61
1547773260.65,7865,0.0,0.0,-8.41,-9.27,-9.27,0,*61
1547773261.84,7866,0.0,0.0,-8.41,-9.27,-9.27,0,*62
1547773263.03,7867,0.0,0.0,-8.41,-9.23,-9.27,0,*67
1547773264.25,7868,0.0,0.0,-8.39,-9.23,-9.23,0,*63
1547773265.46,7869,0.0,0.0,-8.39,-9.23,-9.23,0,*62
1547773266.65,7870,0.0,0.0,-8.41,-9.23,-9.23,0,*65
1547773267.85,7871,0.0,0.0,-8.41,-9.23,-9.23,0,*64
1547773269.04,7872,0.0,0.0,-8.41,-9.23,-9.23,0,*67
1547773270.25,7873,0.0,0.0,-8.39,-9.23,-9.27,0,*6D
1547773271.45,7874,0.0,0.0,-8.41,-9.23,-9.27,0,*65
1547773272.69,7875,0.0,0.0,-8.39,-9.37,-9.27,0,*6E
1547773273.89,7876,0.0,0.0,-8.41,-9.27,-9.27,0,*63
1547773275.13,7877,0.0,0.0,-8.39,-9.37,-9.27,0,*6C
1547773276.35,7878,0.0,0.0,-8.41,-9.27,-9.37,0,*6C
1547773277.54,7879,0.0,0.0,-8.41,-9.27,-9.27,0,*6C
1547773278.76,7880,0.0,0.0,-8.39,-9.27,-9.27,0,*65
1547773280.01,7881,0.0,0.0,-8.41,-9.37,-9.41,0,*6A
1547773281.23,7882,0.0,0.0,-8.39,-9.27,-9.27,0,*67
1547773282.42,7883,0.0,0.0,-8.41,-9.27,-9.27,0,*69
1547773283.61,7884,0.0,0.0,-8.41,-9.23,-9.27,0,*6A
1547773284.83,7885,0.0,0.0,-8.39,-9.23,-9.27,0,*64
1547773286.08,7886,0.0,0.0,-8.41,-9.37,-9.37,0,*6C
1547773287.27,7887,0.0,0.0,-8.41,-9.27,-9.27,0,*6D
1547773288.49,7888,0.0,0.0,-8.39,-9.27,-9.27,0,*6D
1547773289.71,7889,0.0,0.0,-8.39,-9.23,-9.27,0,*68
1547773290.93,7890,0.0,0.0,-8.39,-9.27,-9.27,0,*64
1547773292.17,7891,0.0,0.0,-8.41,-9.41,-9.41,0,*6A
1547773293.39,7892,0.0,0.0,-8.39,-9.27,-9.27,0,*66
1547773294.58,7893,0.0,0.0,-8.41,-9.27,-9.27,0,*68
1547773295.8,7894,0.0,0.0,-8.39,-9.27,-9.27,0,*60
1547773297.02,7895,0.0,0.0,-8.39,-9.27,-9.27,0,*61
1547773298.24,7896,0.0,0.0,-8.41,-9.27,-9.37,0,*6C
1547773299.48,7897,0.0,0.0,-8.39,-9.27,-9.41,0,*63
1547773300.75,7898,0.0,0.0,-8.39,-9.49,-9.53,0,*67
1547773301.99,7899,0.0,0.0,-8.41,-9.53,-9.53,0,*62
1547773303.24,7900,0.0,0.0,-8.41,-9.41,-9.41,0,*63
1547773304.48,7901,0.0,0.0,-8.41,-9.41,-9.37,0,*63
1547773305.68,7902,0.0,0.0,-8.41,-9.27,-9.27,0,*61
1547773306.92,7903,0.0,0.0,-8.39,-9.27,-9.37,0,*6E
1547773308.16,7904,0.0,0.0,-8.41,-9.49,-9.49,0,*67
1547773309.43,7905,0.0,0.0,-8.39,-9.49,-9.41,0,*61
1547773310.67,7906,0.0,0.0,-8.41,-9.41,-9.49,0,*6D
1547773311.91,7907,0.0,0.0,-8.41,-9.49,-9.41,0,*6C
1547773313.16,7908,0.0,0.0,-8.41,-9.41,-9.41,0,*6B
1547773314.4,7909,0.0,0.0,-8.41,-9.41,-9.49,0,*62
1547773315.65,7910,0.0,0.0,-8.41,-9.41,-9.49,0,*6A
1547773316.89,7911,0.0,0.0,-8.41,-9.49,-9.49,0,*63
1547773318.14,7912,0.0,0.0,-8.41,-9.41,-9.37,0,*61
1547773319.39,7913,0.0,0.0,-8.41,-9.37,-9.37,0,*61
1547773320.58,7914,0.0,0.0,-8.41,-9.27,-9.27,0,*66
1547773321.82,7915,0.0,0.0,-8.43,-9.45,-9.31,0,*66
1547773323.08,7916,0.0,0.0,-8.43,-9.45,-9.41,0,*62
1547773324.32,7917,0.0,0.0,-8.43,-9.31,-9.41,0,*60
1547773325.53,7918,0.0,0.0,-8.43,-9.31,-9.31,0,*68
1547773326.8,7919,0.0,0.0,-8.43,-9.41,-9.41,0,*69
1547773328.01,7920,0.0,0.0,-8.43,-9.31,-9.31,0,*63
1547773329.2,7921,0.0,0.0,-8.41,-9.23,-9.27,0,*64
1547773330.4,7922,0.0,0.0,-8.41,-9.23,-9.23,0,*63
1547773331.59,7923,0.0,0.0,-8.41,-9.23,-9.23,0,*62
1547773332.78,7924,0.0,0.0,-8.41,-9.27,-9.27,0,*65
1547773334.03,7925,0.0,0.0,-8.41,-9.37,-9.37,0,*64
1547773335.22,7926,0.0,0.0,-8.41,-9.23,-9.27,0,*63
1547773336.42,7927,0.0,0.0,-8.41,-9.19,-9.27,0,*6B
1547773337.61,7928,0.0,0.0,-8.41,-9.19,-9.19,0,*69
1547773338.82,7929,0.0,0.0,-8.39,-9.23,-9.23,0,*67
1547773340.02,7930,0.0,0.0,-8.41,-9.23,-9.19,0,*69
1547773341.21,7931,0.0,0.0,-8.41,-9.23,-9.23,0,*61
1547773342.4,7932,0.0,0.0,-8.41,-9.23,-9.23,0,*62
1547773343.59,7933,0.0,0.0,-8.41,-9.27,-9.23,0,*67
1547773344.78,7934,0.0,0.0,-8.41,-9.27,-9.27,0,*64
1547773345.98,7935,0.0,0.0,-8.41,-9.27,-9.27,0,*65
1547773347.2,7936,0.0,0.0,-8.41,-9.37,-9.27,0,*67
1547773348.39,7937,0.0,0.0,-8.41,-9.27,-9.27,0,*67
1547773349.58,7938,0.0,0.0,-8.41,-9.27,-9.23,0,*6C
1547773350.77,7939,0.0,0.0,-8.41,-9.27,-9.23,0,*6D
1547773351.96,7940,0.0,0.0,-8.41,-9.27,-9.23,0,*63
1547773353.15,7941,0.0,0.0,-8.41,-9.27,-9.23,0,*62
1547773354.35,7942,0.0,0.0,-8.41,-9.23,-9.23,0,*65
1547773355.54,7943,0.0,0.0,-8.41,-9.19,-9.23,0,*6D
1547773356.73,7944,0.0,0.0,-8.41,-9.23,-9.23,0,*63
1547773357.94,7945,0.0,0.0,-8.39,-9.23,-9.23,0,*6D
1547773359.13,7946,0.0,0.0,-8.41,-9.23,-9.23,0,*61
1547773360.33,7947,0.0,0.0,-8.41,-9.19,-9.23,0,*69
1547773361.52,7948,0.0,0.0,-8.41,-9.19,-9.23,0,*66
1547773362.71,7949,0.0,0.0,-8.41,-9.23,-9.23,0,*6E
1547773363.9,7950,0.0,0.0,-8.41,-9.23,-9.23,0,*66
1547773365.09,7951,0.0,0.0,-8.41,-9.19,-9.23,0,*6E
1547773366.31,7952,0.0,0.0,-8.39,-9.23,-9.23,0,*6B
1547773367.5,7953,0.0,0.0,-8.41,-9.19,-9.19,0,*65
1547773368.69,7954,0.0,0.0,-8.41,-9.23,-9.23,0,*62
1547773369.9,7955,0.0,0.0,-8.39,-9.19,-9.19,0,*6C
1547773371.09,7956,0.0,0.0,-8.41,-9.19,-9.23,0,*69
1547773372.29,7957,0.0,0.0,-8.41,-9.19,-9.19,0,*61
1547773373.5,7958,0.0,0.0,-8.39,-9.19,-9.19,0,*61
1547773374.69,7959,0.0,0.0,-8.41,-9.19,-9.19,0,*6F
1547773375.91,7960,0.0,0.0,-8.39,-9.23,-9.23,0,*6A
1547773377.1,7961,0.0,0.0,-8.41,-9.23,-9.23,0,*64
1547773378.29,7962,0.0,0.0,-8.41,-9.23,-9.19,0,*6E
1547773379.51,7963,0.0,0.0,-8.41,-9.19,-9.11,0,*6E
1547773380.73,7964,0.0,0.0,-8.39,-9.19,-9.23,0,*67
1547773381.94,7965,0.0,0.0,-8.39,-9.19,-9.19,0,*6F
1547773383.16,7966,0.0,0.0,-8.39,-9.19,-9.23,0,*65
1547773384.37,7967,0.0,0.0,-8.39,-9.19,-9.19,0,*6D
1547773385.56,7968,0.0,0.0,-8.41,-9.23,-9.19,0,*64
1547773386.78,7969,0.0,0.0,-8.39,-9.19,-9.23,0,*6A
1547773387.97,7970,0.0,0.0,-8.41,-9.23,-9.23,0,*64
1547773389.19,7971,0.0,0.0,-8.39,-9.23,-9.27,0,*6E
1547773390.4,7972,0.0,0.0,-8.39,-9.23,-9.23,0,*69
1547773391.62,7973,0.0,0.0,-8.39,-9.23,-9.23,0,*68
1547773392.83,7974,0.0,0.0,-8.39,-9.19,-9.23,0,*66
1547773394.05,7975,0.0,0.0,-8.39,-9.23,-9.23,0,*6E
1547773395.24,7976,0.0,0.0,-8.41,-9.23,-9.23,0,*62
1547773396.43,7977,0.0,0.0,-8.41,-9.23,-9.27,0,*67
1547773397.63,7978,0.0,0.0,-8.41,-9.23,-9.27,0,*68
1547773398.87,7979,0.0,0.0,-8.39,-9.27,-9.37,0,*63
1547773400.09,7980,0.0,0.0,-8.39,-9.27,-9.27,0,*64
1547773401.31,7981,0.0,0.0,-8.39,-9.27,-9.27,0,*65
1547773402.55,7982,0.0,0.0,-8.41,-9.37,-9.37,0,*69
1547773403.8,7983,0.0,0.0,-8.39,-9.27,-9.37,0,*66
1547773405.07,7984,0.0,0.0,-8.39,-9.37,-9.37,0,*60
1547773406.32,7985,0.0,0.0,-8.39,-9.27,-9.37,0,*60
1547773407.56,7986,0.0,0.0,-8.39,-9.27,-9.37,0,*63
1547773408.76,7987,0.0,0.0,-8.41,-9.27,-9.27,0,*6C
1547773409.97,7988,0.0,0.0,-8.39,-9.27,-9.23,0,*68
1547773411.19,7989,0.0,0.0,-8.39,-9.23,-9.23,0,*6D
1547773412.4,7990,0.0,0.0,-8.39,-9.23,-9.23,0,*65
1547773413.62,7991,0.0,0.0,-8.41,-9.37,-9.27,0,*6A
1547773414.84,7992,0.0,0.0,-8.39,-9.27,-9.23,0,*63
1547773416.05,7993,0.0,0.0,-8.39,-9.27,-9.23,0,*62
1547773417.26,7994,0.0,0.0,-8.39,-9.27,-9.23,0,*65
1547773418.48,7995,0.0,0.0,-8.39,-9.27,-9.23,0,*64
1547773419.69,7996,0.0,0.0,-8.39,-9.27,-9.23,0,*67
1547773420.91,7997,0.0,0.0,-8.41,-9.37,-9.23,0,*68
1547773422.13,7998,0.0,0.0,-8.39,-9.27,-9.19,0,*60
1547773423.34,7999,0.0,0.0,-8.39,-9.23,-9.23,0,*6C
1547773424.56,8000,0.0,0.0,-8.39,-9.23,-9.23,0,*6A
1547773425.75,8001,0.0,0.0,-8.41,-9.23,-9.23,0,*64
1547773426.96,8002,0.0,0.0,-8.39,-9.23,-9.23,0,*68
1547773428.15,8003,0.0,0.0,-8.41,-9.23,-9.23,0,*66
1547773429.34,8004,0.0,0.0,-8.41,-9.23,-9.23,0,*61
1547773430.56,8005,0.0,0.0,-8.39,-9.23,-9.23,0,*6F
1547773431.75,8006,0.0,0.0,-8.41,-9.23,-9.23,0,*63
1547773432.94,8007,0.0,0.0,-8.41,-9.23,-9.23,0,*62
1547773434.13,8008,0.0,0.0,-8.41,-9.23,-9.19,0,*64
1547773435.35,8009,0.0,0.0,-8.39,-9.23,-9.23,0,*63
1547773436.56,8010,0.0,0.0,-8.39,-9.23,-9.23,0,*6B
1547773437.75,8011,0.0,0.0,-8.41,-9.23,-9.23,0,*65
1547773438.94,8012,0.0,0.0,-8.41,-9.23,-9.23,0,*66
1547773440.13,8013,0.0,0.0,-8.41,-9.23,-9.23,0,*67
1547773441.35,8014,0.0,0.0,-8.39,-9.23,-9.19,0,*66
1547773442.56,8015,0.0,0.0,-8.39,-9.23,-9.19,0,*67
1547773443.76,8016,0.0,0.0,-8.41,-9.19,-9.19,0,*62
1547773444.97,8017,0.0,0.0,-8.39,-9.19,-9.19,0,*6C
1547773446.19,8018,0.0,0.0,-8.39,-9.23,-9.19,0,*6A
1547773447.4,8019,0.0,0.0,-8.39,-9.23,-9.23,0,*62
1547773448.59,8020,0.0,0.0,-8.41,-9.19,-9.19,0,*67
1547773449.81,8021,0.0,0.0,-8.39,-9.19,-9.23,0,*60
1547773451.05,8022,0.0,0.0,-8.39,-9.19,-9.11,0,*62
1547773452.24,8023,0.0,0.0,-8.41,-9.19,-9.19,0,*64
1547773453.46,8024,0.0,0.0,-8.39,-9.19,-9.19,0,*6C
1547773454.65,8025,0.0,0.0,-8.41,-9.19,-9.19,0,*62
1547773455.87,8026,0.0,0.0,-8.39,-9.23,-9.19,0,*67
1547773457.11,8027,0.0,0.0,-8.39,-9.19,-9.11,0,*67
1547773458.33,8028,0.0,0.0,-8.39,-9.19,-9.19,0,*60
1547773459.54,8029,0.0,0.0,-8.39,-9.19,-9.23,0,*68
1547773460.78,8030,0.0,0.0,-8.39,-9.11,-9.19,0,*61
1547773462.0,8031,0.0,0.0,-8.39,-9.23,-9.23,0,*68
1547773463.22,8032,0.0,0.0,-8.39,-9.19,-9.19,0,*6B
1547773464.43,8033,0.0,0.0,-8.39,-9.23,-9.19,0,*63
1547773465.65,8034,0.0,0.0,-8.39,-9.19,-9.19,0,*6D
1547773466.86,8035,0.0,0.0,-8.39,-9.19,-9.19,0,*6C
1547773468.05,8036,0.0,0.0,-8.41,-9.23,-9.23,0,*60
1547773469.27,8037,0.0,0.0,-8.39,-9.23,-9.23,0,*6E
1547773470.48,8038,0.0,0.0,-8.39,-9.27,-9.23,0,*65
1547773471.7,8039,0.0,0.0,-8.39,-9.27,-9.23,0,*64
1547773472.89,8040,0.0,0.0,-8.41,-9.23,-9.23,0,*61
1547773474.1,8041,0.0,0.0,-8.39,-9.23,-9.23,0,*6F
1547773475.32,8042,0.0,0.0,-8.39,-9.23,-9.19,0,*65
1547773476.53,8043,0.0,0.0,-8.39,-9.27,-9.23,0,*69
1547773477.75,8044,0.0,0.0,-8.39,-9.27,-9.23,0,*6E
1547773478.96,8045,0.0,0.0,-8.39,-9.27,-9.27,0,*6B
1547773480.18,8046,0.0,0.0,-8.39,-9.27,-9.27,0,*68
1547773481.4,8047,0.0,0.0,-8.39,-9.27,-9.23,0,*6D
1547773482.61,8048,0.0,0.0,-8.39,-9.27,-9.19,0,*6B
1547773483.83,8049,0.0,0.0,-8.39,-9.23,-9.23,0,*67
1547773485.04,8050,0.0,0.0,-8.39,-9.23,-9.23,0,*6F
1547773486.26,8051,0.0,0.0,-8.39,-9.19,-9.23,0,*67
1547773487.47,8052,0.0,0.0,-8.39,-9.23,-9.23,0,*6D
1547773488.69,8053,0.0,0.0,-8.39,-9.19,-9.23,0,*65
1547773489.88,8054,0.0,0.0,-8.41,-9.23,-9.23,0,*64
1547773491.09,8055,0.0,0.0,-8.39,-9.23,-9.19,0,*63
1547773492.28,8056,0.0,0.0,-8.37,-9.19,-9.19,0,*67
1547773493.51,8057,0.0,0.0,-8.37,-9.15,-9.19,0,*6A
1547773494.7,8058,0.0,0.0,-8.37,-9.19,-9.19,0,*69
1547773495.89,8059,0.0,0.0,-8.37,-9.19,-9.19,0,*68
1547773497.08,8060,0.0,0.0,-8.37,-9.19,-9.19,0,*62
1547773498.3,8061,0.0,0.0,-8.39,-9.23,-9.19,0,*64
1547773499.52,8062,0.0,0.0,-8.39,-9.23,-9.19,0,*67
1547773500.73,8063,0.0,0.0,-8.39,-9.19,-9.19,0,*6F
1547773501.95,8064,0.0,0.0,-8.39,-9.19,-9.19,0,*68
1547773503.19,8065,0.0,0.0,-8.37,-9.15,-9.15,0,*67
1547773504.42,8066,0.0,0.0,-8.37,-9.15,-9.01,0,*61
1547773505.62,8067,0.0,0.0,-8.37,-9.05,-9.05,0,*65
1547773506.87,8068,0.0,0.0,-8.37,-9.15,-9.15,0,*6A
1547773508.12,8069,0.0,0.0,-8.37,-9.15,-9.15,0,*6B
1547773509.34,8070,0.0,0.0,-8.37,-9.19,-9.15,0,*6F
1547773510.55,8071,0.0,0.0,-8.37,-9.19,-9.15,0,*6E
1547773511.78,8072,0.0,0.0,-8.37,-9.15,-9.05,0,*60
1547773513.0,8073,0.0,0.0,-8.37,-9.19,-9.15,0,*6C
1547773514.25,8074,0.0,0.0,-8.37,-9.15,-9.15,0,*67
1547773515.52,8075,0.0,0.0,-8.35,-9.15,-9.15,0,*64
1547773516.77,8076,0.0,0.0,-8.37,-9.15,-9.15,0,*65
1547773517.99,8077,0.0,0.0,-8.37,-9.05,-9.15,0,*65
1547773519.18,8078,0.0,0.0,-8.37,-9.19,-9.05,0,*66
1547773520.41,8079,0.0,0.0,-8.37,-9.15,-9.19,0,*66
1547773521.6,8080,0.0,0.0,-8.37,-9.19,-9.19,0,*6C
1547773522.85,8081,0.0,0.0,-8.35,-9.15,-9.05,0,*6E
1547773524.1,8082,0.0,0.0,-8.37,-9.15,-9.15,0,*6E
1547773525.32,8083,0.0,0.0,-8.35,-9.19,-9.19,0,*6D
1547773526.53,8084,0.0,0.0,-8.35,-9.19,-9.19,0,*6A
1547773527.78,8085,0.0,0.0,-8.37,-9.15,-9.15,0,*69
1547773529.06,8086,0.0,0.0,-8.35,-9.15,-9.15,0,*68
1547773530.25,8087,0.0,0.0,-8.37,-9.19,-9.19,0,*6B
1547773531.5,8088,0.0,0.0,-8.37,-9.15,-9.15,0,*64
1547773532.75,8089,0.0,0.0,-8.37,-9.15,-9.15,0,*65
1547773533.96,8090,0.0,0.0,-8.35,-9.19,-9.19,0,*6F
1547773535.16,8091,0.0,0.0,-8.37,-9.19,-9.19,0,*6C
1547773536.35,8092,0.0,0.0,-8.37,-9.19,-9.19,0,*6F
1547773537.59,8093,0.0,0.0,-8.35,-9.19,-9.15,0,*60
1547773538.84,8094,0.0,0.0,-8.35,-9.19,-9.15,0,*67
1547773540.03,8095,0.0,0.0,-8.37,-9.19,-9.19,0,*68
1547773541.3,8096,0.0,0.0,-8.35,-9.15,-9.15,0,*69
1547773542.49,8097,0.0,0.0,-8.37,-9.19,-9.19,0,*6A
1547773543.71,8098,0.0,0.0,-8.35,-9.19,-9.19,0,*67
1547773544.9,8099,0.0,0.0,-8.37,-9.19,-9.19,0,*64
1547773546.1,8100,0.0,0.0,-8.37,-9.19,-9.23,0,*6C
1547773547.31,8101,0.0,0.0,-8.35,-9.19,-9.23,0,*6F
1547773548.51,8102,0.0,0.0,-8.37,-9.19,-9.19,0,*67
1547773549.7,8103,0.0,0.0,-8.37,-9.19,-9.19,0,*66
1547773550.91,8104,0.0,0.0,-8.35,-9.19,-9.31,0,*69
1547773552.13,8105,0.0,0.0,-8.35,-9.31,-9.23,0,*61
1547773553.32,8106,0.0,0.0,-8.37,-9.23,-9.23,0,*63
1547773554.51,8107,0.0,0.0,-8.37,-9.31,-9.23,0,*61
1547773555.7,8108,0.0,0.0,-8.37,-9.31,-9.23,0,*6E
1547773556.89,8109,0.0,0.0,-8.37,-9.31,-9.31,0,*6C
1547773558.1,8110,0.0,0.0,-8.37,-9.45,-9.31,0,*67
1547773559.29,8111,0.0,0.0,-8.37,-9.31,-9.23,0,*66
1547773560.48,8112,0.0,0.0,-8.37,-9.31,-9.23,0,*65
1547773561.68,8113,0.0,0.0,-8.37,-9.23,-9.23,0,*67
1547773562.87,8114,0.0,0.0,-8.37,-9.23,-9.23,0,*60
1547773564.06,8115,0.0,0.0,-8.37,-9.23,-9.19,0,*68
1547773565.31,8116,0.0,0.0,-8.37,-9.15,-9.15,0,*62
1547773566.5,8117,0.0,0.0,-8.37,-9.19,-9.19,0,*63
1547773567.69,8118,0.0,0.0,-8.37,-9.19,-9.19,0,*6C
1547773568.91,8119,0.0,0.0,-8.37,-9.15,-9.19,0,*61
1547773570.11,8120,0.0,0.0,-8.37,-9.19,-9.19,0,*67
1547773571.32,8121,0.0,0.0,-8.35,-9.19,-9.19,0,*64
1547773572.52,8122,0.0,0.0,-8.37,-9.19,-9.19,0,*65
1547773573.71,8123,0.0,0.0,-8.37,-9.19,-9.19,0,*64
1547773574.9,8124,0.0,0.0,-8.37,-9.19,-9.19,0,*63
1547773576.09,8125,0.0,0.0,-8.37,-9.19,-9.19,0,*62
1547773577.29,8126,0.0,0.0,-8.37,-9.19,-9.19,0,*61
1547773578.5,8127,0.0,0.0,-8.37,-9.19,-9.15,0,*6C
1547773579.7,8128,0.0,0.0,-8.37,-9.19,-9.19,0,*6F
1547773580.92,8129,0.0,0.0,-8.37,-9.15,-9.19,0,*62
1547773582.11,8130,0.0,0.0,-8.37,-9.19,-9.19,0,*66
1547773583.3,8131,0.0,0.0,-8.37,-9.19,-9.19,0,*67
1547773584.5,8132,0.0,0.0,-8.37,-9.19,-9.19,0,*64
1547773585.71,8133,0.0,0.0,-8.37,-9.19,-9.15,0,*69
1547773586.91,8134,0.0,0.0,-8.37,-9.19,-9.19,0,*62
1547773588.12,8135,0.0,0.0,-8.37,-9.19,-9.15,0,*6F
1547773589.34,8136,0.0,0.0,-8.37,-9.19,-9.15,0,*6C
1547773590.56,8137,0.0,0.0,-8.37,-9.19,-9.15,0,*6D
1547773591.75,8138,0.0,0.0,-8.37,-9.19,-9.19,0,*6E
1547773592.97,8139,0.0,0.0,-8.37,-9.19,-9.15,0,*63
1547773594.16,8140,0.0,0.0,-8.37,-9.19,-9.19,0,*61
1547773595.35,8141,0.0,0.0,-8.37,-9.19,-9.19,0,*60
1547773596.6,8142,0.0,0.0,-8.35,-9.15,-9.19,0,*6D
1547773597.85,8143,0.0,0.0,-8.37,-9.15,-9.15,0,*62
1547773599.08,8144,0.0,0.0,-8.37,-9.15,-9.05,0,*64
1547773600.29,8145,0.0,0.0,-8.37,-9.19,-9.15,0,*68
1547773601.52,8146,0.0,0.0,-8.37,-9.15,-9.19,0,*6B
1547773602.74,8147,0.0,0.0,-8.37,-9.15,-9.19,0,*6A
1547773603.98,8148,0.0,0.0,-8.35,-9.19,-9.15,0,*67
1547773605.23,8149,0.0,0.0,-8.37,-9.15,-9.15,0,*68
1547773606.46,8150,0.0,0.0,-8.37,-9.15,-9.19,0,*6C
1547773607.71,8151,0.0,0.0,-8.37,-9.15,-9.15,0,*61
1547773608.95,8152,0.0,0.0,-8.37,-9.15,-9.15,0,*62
1547773610.23,8153,0.0,0.0,-8.35,-9.15,-9.15,0,*61
1547773611.48,8154,0.0,0.0,-8.35,-9.15,-9.05,0,*67
1547773612.67,8155,0.0,0.0,-8.37,-9.19,-9.19,0,*65
1547773613.86,8156,0.0,0.0,-8.37,-9.19,-9.19,0,*66
1547773615.06,8157,0.0,0.0,-8.37,-9.19,-9.19,0,*67
1547773616.27,8158,0.0,0.0,-8.35,-9.23,-9.23,0,*6A
1547773617.49,8159,0.0,0.0,-8.35,-9.23,-9.23,0,*6B
1547773618.68,8160,0.0,0.0,-8.37,-9.23,-9.23,0,*63
1547773619.87,8161,0.0,0.0,-8.37,-9.31,-9.23,0,*61
1547773621.07,8162,0.0,0.0,-8.37,-9.19,-9.23,0,*68
1547773622.28,8163,0.0,0.0,-8.35,-9.19,-9.19,0,*62
1547773623.47,8164,0.0,0.0,-8.37,-9.19,-9.19,0,*67
1547773624.67,8165,0.0,0.0,-8.37,-9.23,-9.23,0,*66
1547773625.86,8166,0.0,0.0,-8.37,-9.31,-9.23,0,*66
1547773627.05,8167,0.0,0.0,-8.37,-9.23,-9.23,0,*64
1547773628.26,8168,0.0,0.0,-8.35,-9.23,-9.23,0,*69
1547773629.46,8169,0.0,0.0,-8.37,-9.23,-9.19,0,*63
1547773630.65,8170,0.0,0.0,-8.37,-9.23,-9.31,0,*61
1547773631.84,8171,0.0,0.0,-8.37,-9.23,-9.23,0,*63
1547773633.05,8172,0.0,0.0,-8.35,-9.23,-9.23,0,*62
1547773634.27,8173,0.0,0.0,-8.35,-9.23,-9.23,0,*63
1547773635.48,8174,0.0,0.0,-8.35,-9.23,-9.31,0,*67
1547773636.67,8175,0.0,0.0,-8.37,-9.31,-9.31,0,*67
1547773637.89,8176,0.0,0.0,-8.37,-9.37,-9.23,0,*61
1547773639.08,8177,0.0,0.0,-8.37,-9.23,-9.23,0,*65
1547773640.27,8178,0.0,0.0,-8.37,-9.31,-9.23,0,*69
1547773641.49,8179,0.0,0.0,-8.37,-9.45,-9.23,0,*6B
1547773642.73,8180,0.0,0.0,-8.37,-9.49,-9.45,0,*61
1547773643.98,8181,0.0,0.0,-8.37,-9.37,-9.37,0,*6C
1547773645.23,8182,0.0,0.0,-8.37,-9.37,-9.37,0,*6F
1547773646.42,8183,0.0,0.0,-8.37,-9.31,-9.31,0,*6E
1547773647.63,8184,0.0,0.0,-8.37,-9.37,-9.23,0,*6C
1547773648.82,8185,0.0,0.0,-8.37,-9.23,-9.23,0,*68
1547773650.02,8186,0.0,0.0,-8.37,-9.31,-9.23,0,*68
1547773651.21,8187,0.0,0.0,-8.37,-9.23,-9.19,0,*63
1547773652.43,8188,0.0,0.0,-8.37,-9.31,-9.37,0,*63
1547773653.67,8189,0.0,0.0,-8.39,-9.37,-9.27,0,*6B
1547773654.86,8190,0.0,0.0,-8.37,-9.31,-9.31,0,*6C
1547773656.13,8191,0.0,0.0,-8.39,-9.37,-9.37,0,*63
1547773657.38,8192,0.0,0.0,-8.39,-9.41,-9.27,0,*60
1547773658.59,8193,0.0,0.0,-8.39,-9.27,-9.23,0,*65
1547773659.84,8194,0.0,0.0,-8.39,-9.37,-9.27,0,*67
1547773661.05,8195,0.0,0.0,-8.39,-9.27,-9.27,0,*67
1547773662.3,8196,0.0,0.0,-8.39,-9.37,-9.27,0,*65
1547773663.54,8197,0.0,0.0,-8.39,-9.37,-9.27,0,*64
1547773664.79,8198,0.0,0.0,-8.39,-9.37,-9.27,0,*6B
1547773666.06,8199,0.0,0.0,-8.39,-9.37,-9.37,0,*6B
1547773667.28,8200,0.0,0.0,-8.39,-9.27,-9.27,0,*68
1547773668.47,8201,0.0,0.0,-8.37,-9.31,-9.23,0,*64
1547773669.69,8202,0.0,0.0,-8.39,-9.27,-9.27,0,*6A
1547773670.9,8203,0.0,0.0,-8.39,-9.27,-9.27,0,*6B
1547773672.12,8204,0.0,0.0,-8.39,-9.27,-9.27,0,*6C
1547773673.34,8205,0.0,0.0,-8.39,-9.27,-9.27,0,*6D
1547773674.58,8206,0.0,0.0,-8.39,-9.37,-9.27,0,*6F
1547773675.83,8207,0.0,0.0,-8.39,-9.41,-9.27,0,*6F
1547773677.04,8208,0.0,0.0,-8.39,-9.27,-9.27,0,*60
1547773678.31,8209,0.0,0.0,-8.39,-9.37,-9.41,0,*60
1547773679.58,8210,0.0,0.0,-8.39,-9.49,-9.49,0,*69
1547773680.84,8211,0.0,0.0,-8.39,-9.53,-9.41,0,*6B
1547773682.06,8212,0.0,0.0,-8.41,-9.37,-9.27,0,*65
1547773683.28,8213,0.0,0.0,-8.39,-9.27,-9.27,0,*6A
1547773684.53,8214,0.0,0.0,-8.41,-9.37,-9.37,0,*62
1547773685.74,8215,0.0,0.0,-8.39,-9.27,-9.27,0,*6C
1547773686.96,8216,0.0,0.0,-8.39,-9.27,-9.27,0,*6F
1547773688.18,8217,0.0,0.0,-8.39,-9.27,-9.27,0,*6E
1547773689.42,8218,0.0,0.0,-8.39,-9.27,-9.37,0,*60
1547773690.69,8219,0.0,0.0,-8.39,-9.41,-9.41,0,*60
1547773691.94,8220,0.0,0.0,-8.41,-9.41,-9.41,0,*65
1547773693.18,8221,0.0,0.0,-8.41,-9.37,-9.41,0,*65
1547773694.43,8222,0.0,0.0,-8.41,-9.37,-9.37,0,*67
1547773695.7,8223,0.0,0.0,-8.39,-9.37,-9.37,0,*69
1547773696.98,8224,0.0,0.0,-8.39,-9.37,-9.37,0,*6E
1547773698.22,8225,0.0,0.0,-8.41,-9.41,-9.37,0,*61
1547773699.5,8226,0.0,0.0,-8.39,-9.37,-9.37,0,*6C
1547773700.69,8227,0.0,0.0,-8.41,-9.27,-9.27,0,*62
1547773701.91,8228,0.0,0.0,-8.39,-9.27,-9.27,0,*62
1547773703.15,8229,0.0,0.0,-8.39,-9.37,-9.27,0,*62
1547773704.35,8230,0.0,0.0,-8.41,-9.27,-9.27,0,*64
1547773705.56,8231,0.0,0.0,-8.39,-9.27,-9.27,0,*6A
1547773706.76,8232,0.0,0.0,-8.41,-9.27,-9.27,0,*66
1547773707.97,8233,0.0,0.0,-8.39,-9.27,-9.27,0,*68
1547773709.2,8234,0.0,0.0,-8.41,-9.37,-9.27,0,*61
1547773710.39,8235,0.0,0.0,-8.41,-9.27,-9.27,0,*61
1547773711.61,8236,0.0,0.0,-8.39,-9.27,-9.27,0,*6D
1547773712.82,8237,0.0,0.0,-8.39,-9.27,-9.27,0,*6C
1547773714.04,8238,0.0,0.0,-8.41,-9.37,-9.27,0,*6D
1547773715.26,8239,0.0,0.0,-8.39,-9.27,-9.27,0,*62
1547773716.48,8240,0.0,0.0,-8.39,-9.27,-9.27,0,*6C
1547773717.7,8241,0.0,0.0,-8.41,-9.37,-9.27,0,*63
1547773718.97,8242,0.0,0.0,-8.39,-9.37,-9.37,0,*6E
1547773720.25,8243,0.0,0.0,-8.39,-9.37,-9.37,0,*6F
1547773721.49,8244,0.0,0.0,-8.39,-9.37,-9.27,0,*69
1547773722.71,8245,0.0,0.0,-8.41,-9.37,-9.27,0,*67
1547773723.93,8246,0.0,0.0,-8.41,-9.27,-9.37,0,*64
1547773725.18,8247,0.0,0.0,-8.41,-9.37,-9.37,0,*64
1547773726.37,8248,0.0,0.0,-8.41,-9.27,-9.23,0,*6F
1547773727.56,8249,0.0,0.0,-8.41,-9.27,-9.27,0,*6A
1547773728.76,8250,0.0,0.0,-8.41,-9.27,-9.27,0,*62
1547773729.95,8251,0.0,0.0,-8.41,-9.27,-9.27,0,*63
1547773731.2,8252,0.0,0.0,-8.41,-9.41,-9.37,0,*61
1547773732.47,8253,0.0,0.0,-8.39,-9.41,-9.37,0,*6F
1547773733.72,8254,0.0,0.0,-8.39,-9.41,-9.27,0,*69
1547773734.99,8255,0.0,0.0,-8.39,-9.41,-9.41,0,*68
1547773736.26,8256,0.0,0.0,-8.39,-9.37,-9.37,0,*6B
1547773737.51,8257,0.0,0.0,-8.41,-9.37,-9.37,0,*65
1547773738.7,8258,0.0,0.0,-8.41,-9.27,-9.27,0,*6A
1547773739.89,8259,0.0,0.0,-8.41,-9.27,-9.27,0,*6B
1547773741.08,8260,0.0,0.0,-8.41,-9.27,-9.23,0,*65
1547773742.28,8261,0.0,0.0,-8.41,-9.27,-9.23,0,*64
1547773743.49,8262,0.0,0.0,-8.39,-9.27,-9.23,0,*68
1547773744.71,8263,0.0,0.0,-8.39,-9.27,-9.23,0,*69
1547773745.9,8264,0.0,0.0,-8.41,-9.27,-9.23,0,*61
1547773747.16,8265,0.0,0.0,-8.39,-9.41,-9.41,0,*6B
1547773748.39,8266,0.0,0.0,-8.41,-9.37,-9.27,0,*66
1547773749.58,8267,0.0,0.0,-8.41,-9.27,-9.23,0,*62
1547773750.79,8268,0.0,0.0,-8.39,-9.27,-9.23,0,*62
1547773752.01,8269,0.0,0.0,-8.39,-9.27,-9.19,0,*6A
1547773753.2,8270,0.0,0.0,-8.41,-9.27,-9.23,0,*64
1547773754.39,8271,0.0,0.0,-8.41,-9.23,-9.23,0,*61
1547773755.58,8272,0.0,0.0,-8.41,-9.23,-9.23,0,*62
1547773756.8,8273,0.0,0.0,-8.39,-9.23,-9.23,0,*6C
1547773757.99,8274,0.0,0.0,-8.41,-9.27,-9.23,0,*60
1547773759.18,8275,0.0,0.0,-8.41,-9.27,-9.23,0,*61
1547773760.39,8276,0.0,0.0,-8.39,-9.27,-9.27,0,*69
1547773761.61,8277,0.0,0.0,-8.39,-9.23,-9.27,0,*6C
1547773762.83,8278,0.0,0.0,-8.39,-9.23,-9.23,0,*67
1547773764.04,8279,0.0,0.0,-8.39,-9.27,-9.23,0,*62
1547773765.29,8280,0.0,0.0,-8.41,-9.37,-9.37,0,*6F
1547773766.56,8281,0.0,0.0,-8.39,-9.41,-9.37,0,*60
1547773767.83,8282,0.0,0.0,-8.39,-9.37,-9.37,0,*62
1547773769.1,8283,0.0,0.0,-8.39,-9.41,-9.41,0,*63
1547773770.35,8284,0.0,0.0,-8.41,-9.41,-9.41,0,*6B
1547773771.59,8285,0.0,0.0,-8.41,-9.41,-9.49,0,*62
1547773772.84,8286,0.0,0.0,-8.41,-9.41,-9.41,0,*69